[[{"header":{"parameterUnit":"m.s-1","parameterCategory":2,"la1":30.2991,"la2":30.254,"lo1":-89.0895,"lo2":-89.0444,"dy":0.0017,"dx":0.0017,"nx":28,"ny":28,"refTime":"2024-05-22T21:00:00:Z","depth":"0","parameterNumber":2,"parameterNumberName":"U-component_of_CURRENTS"},"data":[0,0,0,0,0,0,0,0,0,0,0,0,0,0,0,0,0,0,0,0,0,0,0,0,0,0,0,0,0,0,0,0,0,0,0,0,0,0,0,0,0,0,0,0,0,0,0,0,0,0,0,0,0,0,0,0,0,0,-0.2821,-0.2822,0,-0.2867,-0.2868,-0.2868,-0.2835,-0.2834,-0.2833,-0.2832,-0.28,-0.2801,-0.2801,0,0,0,0,0,0,0,0,0,0,0,0,0,-0.2722,-0.2724,-0.2821,-0.2822,-0.2823,-0.2867,-0.2868,-0.2868,-0.2836,-0.2834,-0.2833,-0.2831,-0.28,-0.2801,-0.2801,0,0,0,0,0,0,0,0,0,0,0,0,0,-0.2764,-0.2724,-0.2821,-0.2814,-0.2814,-0.2867,-0.2868,-0.2868,-0.2836,-0.2834,-0.2832,-0.2831,-0.28,-0.2801,-0.2801,-0.2841,0,0,-0.2803,-0.2803,0,0,0,0,0,0,0,0,-0.2762,-0.2767,-0.2814,-0.2814,-0.2814,-0.2846,-0.2822,-0.2856,-0.2836,-0.2825,-0.2832,-0.283,-0.2811,-0.2811,-0.2821,-0.284,-0.2838,-0.2803,-0.2803,-0.2803,-0.2803,0,0,0,0,0,0,0,-0.2759,-0.2765,-0.2837,-0.2815,-0.2815,-0.2814,-0.2818,-0.2828,-0.2825,-0.2826,-0.2824,-0.2834,-0.281,-0.2821,-0.282,-0.2838,-0.2803,-0.2803,-0.2803,-0.2804,-0.287,-0.2872,0,0,0,0,0,0,-0.276,-0.2763,-0.2835,-0.2838,-0.2786,-0.2818,-0.2822,-0.2836,-0.2826,-0.2824,-0.2835,-0.2832,-0.2821,-0.282,-0.2819,-0.285,-0.2803,-0.2804,-0.2804,-0.2869,-0.2871,-0.2872,0,0,0,0,0,0,-0.2758,-0.2766,-0.2834,-0.2803,-0.2812,-0.2822,-0.2838,-0.2838,-0.284,-0.2835,-0.283,-0.2836,-0.282,-0.2818,-0.2833,-0.2849,-0.2804,-0.2804,-0.2867,-0.2869,-0.2871,-0.2923,0,0,0,0,0,0,-0.2755,-0.2765,-0.2771,-0.2804,-0.2814,-0.2864,-0.284,-0.284,-0.285,-0.2846,-0.2835,-0.2831,-0.2818,-0.2832,-0.2833,-0.2849,-0.2805,-0.2865,-0.2868,-0.2871,-0.2919,-0.2927,-0.2933,0,0,0,0,0,-0.2751,-0.2768,-0.2772,-0.278,-0.2824,-0.2866,-0.2871,-0.2869,-0.2852,-0.2862,-0.2857,-0.283,-0.285,-0.2835,-0.2835,-0.2851,-0.2864,-0.2867,-0.287,-0.2916,-0.2925,-0.2933,0,0,0,0,0,0,-0.2723,-0.2768,-0.2772,-0.28,-0.283,-0.2861,-0.2869,-0.2873,-0.288,-0.287,-0.2855,-0.2852,-0.287,-0.286,-0.2843,-0.288,-0.2851,-0.2855,-0.2886,-0.2894,-0.2901,-0.2901,-0.2805,0,0,0,0,0,-0.2724,-0.2745,-0.279,-0.2808,-0.2826,-0.2849,-0.2863,-0.287,-0.2884,-0.2884,-0.288,-0.2878,-0.289,-0.2889,-0.2896,-0.2921,-0.2889,-0.2931,-0.2938,-0.2943,-0.2946,-0.2929,-0.2934,-0.2883,-0.2883,-0.2883,0,0,-0.2715,-0.2744,-0.2753,-0.2804,-0.2823,-0.2865,-0.2851,-0.2879,-0.2909,-0.2881,-0.2906,-0.2903,-0.2903,-0.2928,-0.2935,-0.2918,-0.2938,-0.2947,-0.2952,-0.2952,-0.2933,-0.2937,-0.2941,-0.2885,-0.2885,-0.2885,0,0,-0.2717,-0.2737,-0.2761,-0.2799,-0.2843,-0.2868,-0.2878,-0.2916,-0.2922,-0.2958,-0.2945,-0.2954,-0.2969,-0.2975,-0.298,-0.3031,-0.2977,-0.3029,-0.3061,-0.3045,-0.3048,-0.3051,-0.2999,-0.2997,-0.303,-0.303,-0.303,0,-0.2701,-0.2745,-0.2773,-0.2817,-0.2848,-0.2872,-0.2913,-0.2939,-0.2975,-0.2984,-0.2968,-0.2995,-0.2994,-0.3025,-0.3045,-0.3045,-0.3012,-0.3028,-0.3052,-0.3054,-0.3056,-0.3002,-0.2999,-0.3033,-0.3032,-0.3032,-0.3032,0,-0.2734,-0.2771,-0.279,-0.2854,-0.2894,-0.293,-0.2983,-0.301,-0.3019,-0.3037,-0.3062,-0.3064,-0.3073,-0.3081,-0.3081,-0.3103,-0.3066,-0.3062,-0.3026,-0.3064,-0.3005,-0.3,-0.3037,-0.3036,-0.3035,-0.3034,0,0,-0.2683,-0.2791,-0.2794,-0.2833,-0.2917,-0.295,-0.3011,-0.3065,-0.3088,-0.311,-0.3129,-0.316,-0.3144,-0.3149,-0.3143,-0.3138,-0.3124,-0.311,-0.3108,-0.3049,-0.3056,-0.295,-0.2934,-0.312,-0.312,-0.312,-0.3002,0,-0.2693,-0.2775,-0.2831,-0.2902,-0.2949,-0.3006,-0.3061,-0.3113,-0.3137,-0.3162,-0.3165,-0.3179,-0.3175,-0.3171,-0.3171,-0.3146,-0.3118,-0.3154,-0.3037,-0.3033,-0.2927,-0.2929,-0.2819,-0.2699,-0.2998,-0.2997,-0.2996,0,-0.27,-0.2758,-0.2831,-0.2932,-0.2956,-0.3003,-0.3078,-0.3129,-0.3181,-0.3198,-0.3211,-0.3208,-0.3219,-0.3198,-0.3158,-0.3178,-0.312,-0.3088,-0.3082,-0.2963,-0.2919,-0.2715,-0.2679,-0.2668,-0.2989,-0.299,-0.299,0,-0.2641,-0.2751,-0.2804,-0.2842,-0.2963,-0.2997,-0.3051,-0.3124,-0.3162,-0.3203,-0.3217,-0.3228,-0.3215,-0.3178,-0.3115,-0.3136,-0.3038,-0.3054,-0.2894,-0.2884,-0.2757,-0.2736,-0.2689,-0.3,-0.3,-0.3,-0.3001,0,-0.2627,-0.2664,-0.2778,-0.2808,-0.2864,-0.296,-0.3011,-0.3067,-0.314,-0.3161,-0.3213,-0.3205,-0.321,-0.3159,-0.3106,-0.2971,-0.3021,-0.2887,-0.2849,-0.277,-0.2752,-0.271,-0.2745,-0.2996,-0.2997,-0.2998,-0.2998,0,-0.2545,-0.2627,-0.2687,-0.2804,-0.2837,-0.2867,-0.2981,-0.3014,-0.3098,-0.3123,-0.3133,-0.318,-0.3107,-0.3074,-0.2991,-0.2933,-0.2776,-0.2761,-0.2647,-0.2599,-0.2455,-0.2496,-0.2398,-0.2333,-0.2579,-0.2575,-0.2572,0,-0.2511,-0.2534,-0.2646,-0.2669,-0.2715,-0.2785,-0.283,-0.296,-0.2996,-0.3079,-0.307,-0.3045,-0.2974,-0.2826,-0.2719,-0.2579,-0.2607,-0.2411,-0.2442,-0.2417,-0.2437,-0.248,-0.2438,-0.2286,-0.2281,-0.2277,-0.2274,0,-0.242,-0.2454,-0.2493,-0.2552,-0.2599,-0.2657,-0.273,-0.2763,-0.2888,-0.2913,-0.2892,-0.2846,-0.273,-0.2548,-0.2402,-0.2313,-0.2369,-0.2322,-0.2337,-0.2232,-0.2237,-0.2164,-0.2383,-0.2239,-0.2242,-0.2245,-0.2247,-0.2248,-0.2316,-0.2317,-0.2364,-0.24,-0.2452,-0.2475,-0.2461,-0.2549,-0.2567,-0.2551,-0.2626,-0.2505,-0.2436,-0.2208,-0.2128,-0.1984,-0.2065,-0.1942,-0.1997,-0.2046,-0.1979,-0.2099,-0.1896,-0.1898,-0.1899,-0.19,-0.1901,0,-0.2178,-0.219,-0.2213,-0.2243,-0.2223,-0.2309,-0.2345,-0.2291,-0.2235,-0.2267,-0.2212,-0.2103,-0.1955,-0.192,-0.18,-0.1709,-0.1696,-0.1679,-0.1743,-0.1716,-0.1835,-0.1819,-0.1542,-0.1542,-0.1542,-0.1542,-0.1542,-0.1542,-0.2102,-0.2064,-0.2079,-0.199,-0.2001,-0.1909,-0.188,-0.1829,-0.1814,-0.1684,-0.164,-0.1631,-0.1667,-0.1813,-0.1715,-0.1628,-0.1619,-0.1545,-0.1593,-0.1723,-0.1754,-0.1784,-0.1777,-0.1495,-0.1495,-0.1411,-0.141,-0.141]},{"header":{"parameterUnit":"m.s-1","parameterCategory":2,"la1":30.2991,"la2":30.254,"lo1":-89.0895,"lo2":-89.0444,"dy":0.0017,"dx":0.0017,"nx":28,"ny":28,"refTime":"2024-05-22T21:00:00:Z","depth":"0","parameterNumber":3,"parameterNumberName":"V-component_of_CURRENTS"},"data":[0,0,0,0,0,0,0,0,0,0,0,0,0,0,0,0,0,0,0,0,0,0,0,0,0,0,0,0,0,0,0,0,0,0,0,0,0,0,0,0,0,0,0,0,0,0,0,0,0,0,0,0,0,0,0,0,0,0,-0.0152,-0.0151,0,-0.0052,-0.0051,-0.005,0.003,0.003,0.0031,0.0032,0.0186,0.019,0.0193,0,0,0,0,0,0,0,0,0,0,0,0,0,-0.0216,-0.0216,-0.0153,-0.0151,-0.015,-0.0053,-0.0051,-0.005,0.003,0.003,0.0031,0.0032,0.0185,0.0189,0.0194,0,0,0,0,0,0,0,0,0,0,0,0,0,-0.0159,-0.0216,-0.0153,-0.01,-0.0094,-0.0053,-0.0051,-0.0049,0.0029,0.003,0.0032,0.0033,0.0184,0.0189,0.0194,0.0205,0,0,0.021,0.0212,0,0,0,0,0,0,0,0,-0.0162,-0.0157,-0.0109,-0.0103,-0.0097,-0.0024,-0.0017,0.0038,0.0029,-0.0016,0.0032,0.0033,0.012,0.013,0.0148,0.0212,0.0219,0.021,0.0214,0.0216,0.0217,0,0,0,0,0,0,0,-0.0166,-0.016,-0.0112,-0.0108,-0.01,-0.0061,-0.0052,-0.0006,0.0046,-0.0012,-0.0007,0.0003,0.0124,0.0142,0.0152,0.0221,0.021,0.0215,0.0218,0.022,0.0343,0.0344,0,0,0,0,0,0,-0.0185,-0.0164,-0.0115,-0.0109,-0.0129,-0.0061,-0.0051,-0.0047,0.0045,0.0059,0.0002,0.0006,0.0133,0.0146,0.0158,0.0196,0.0216,0.0221,0.0224,0.0343,0.0343,0.0344,0,0,0,0,0,0,-0.0187,-0.0182,-0.0119,-0.0134,-0.0124,-0.0061,-0.0058,-0.0046,-0.0025,0.0055,0.0071,0.001,0.0134,0.015,0.0201,0.0202,0.0223,0.0228,0.0343,0.0343,0.0343,0.0259,0,0,0,0,0,0,-0.0189,-0.0183,-0.019,-0.0136,-0.0124,-0.0104,-0.0058,-0.0045,-0.0022,-0.0015,0.0067,0.0083,0.0136,0.0193,0.0206,0.0209,0.0232,0.0343,0.0343,0.0343,0.0262,0.0257,0.0252,0,0,0,0,0,-0.0192,-0.0209,-0.0192,-0.0185,-0.0135,-0.0105,-0.0095,-0.0045,-0.0023,-0.0021,0.004,0.008,0.0205,0.0197,0.0213,0.0217,0.0343,0.0343,0.0343,0.0264,0.0258,0.0252,0,0,0,0,0,0,-0.0241,-0.0201,-0.0181,-0.0185,-0.0151,-0.0092,-0.0088,-0.0054,-0.0006,0.0002,0.008,0.0099,0.0143,0.0191,0.018,0.0255,0.0281,0.0285,0.0216,0.021,0.0205,0.0193,0.0236,0,0,0,0,0,-0.0257,-0.0259,-0.0211,-0.0216,-0.0203,-0.0148,-0.0131,-0.0098,-0.0048,-0.0026,0.0033,0.0098,0.0156,0.019,0.0242,0.028,0.0337,0.0295,0.029,0.0286,0.0287,0.0375,0.0378,0.0345,0.0345,0.0345,0,0,-0.0277,-0.0257,-0.0256,-0.0226,-0.0197,-0.0188,-0.0135,-0.0118,-0.0101,-0.0017,0.0019,0.0078,0.016,0.0205,0.023,0.0247,0.0323,0.0286,0.0281,0.0285,0.0376,0.0379,0.0382,0.0345,0.0345,0.0345,0,0,-0.0326,-0.0301,-0.0321,-0.0297,-0.0263,-0.0225,-0.0224,-0.017,-0.0137,-0.0099,-0.003,0.003,0.0107,0.0175,0.0218,0.0218,0.0289,0.0232,0.0205,0.029,0.0293,0.0297,0.036,0.037,0.0236,0.0236,0.0236,0,-0.0353,-0.0368,-0.0322,-0.0331,-0.0316,-0.0247,-0.0258,-0.0216,-0.015,-0.0119,-0.01,0.0035,0.0097,0.0177,0.0178,0.0207,0.026,0.0216,0.0283,0.0288,0.0293,0.0357,0.0369,0.0232,0.0232,0.0233,0.0233,0,-0.041,-0.0419,-0.0429,-0.0414,-0.039,-0.039,-0.0325,-0.0295,-0.0249,-0.0194,-0.0118,-0.0027,0.0059,0.0087,0.0133,0.0204,0.0228,0.0259,0.0292,0.0291,0.0359,0.0373,0.0226,0.0227,0.0229,0.023,0,0,-0.0476,-0.0474,-0.0475,-0.0486,-0.0434,-0.0424,-0.0389,-0.0335,-0.0303,-0.023,-0.0176,-0.0077,-0.0018,0.0035,0.0109,0.0185,0.0259,0.0229,0.0235,0.0282,0.0435,0.0473,0.0493,0.0301,0.0304,0.0306,0.0461,0,-0.0536,-0.0584,-0.0552,-0.0579,-0.0594,-0.0515,-0.0485,-0.0419,-0.0345,-0.0274,-0.016,-0.0089,-0.0038,0.0004,0.0088,0.0225,0.0295,0.0213,0.0438,0.0445,0.0472,0.0511,0.0554,0.0699,0.0476,0.0478,0.048,0,-0.0599,-0.0622,-0.0669,-0.066,-0.0656,-0.065,-0.0578,-0.0544,-0.0415,-0.0354,-0.0251,-0.0157,-0.0029,0.0007,0.0233,0.0179,0.0291,0.0392,0.0401,0.0478,0.0511,0.067,0.0734,0.0898,0.0503,0.0501,0.0499,0,-0.0673,-0.07,-0.0744,-0.074,-0.0714,-0.0707,-0.0678,-0.057,-0.0528,-0.0401,-0.0345,-0.0184,-0.0085,0.0073,0.0276,0.0259,0.0527,0.0534,0.0672,0.0675,0.0779,0.0788,0.1025,0.0682,0.0682,0.0681,0.0681,0,-0.0747,-0.078,-0.0785,-0.081,-0.0843,-0.0784,-0.0774,-0.0714,-0.0604,-0.0542,-0.0397,-0.0296,-0.0062,0.0122,0.0279,0.0531,0.0535,0.0681,0.0729,0.0749,0.0753,0.0953,0.1005,0.0687,0.0686,0.0685,0.0684,0,-0.0821,-0.0825,-0.0881,-0.0883,-0.0886,-0.0905,-0.0861,-0.0837,-0.0723,-0.0631,-0.0595,-0.0357,-0.0109,0.0123,0.0414,0.0549,0.0881,0.0847,0.0841,0.0886,0.1145,0.1188,0.1451,0.1568,0.1023,0.1025,0.1027,0,-0.0866,-0.0904,-0.0952,-0.0988,-0.0997,-0.101,-0.1008,-0.0915,-0.0869,-0.0658,-0.0611,-0.035,-0.0131,0.0308,0.0589,0.0886,0.1,0.1077,0.1052,0.1185,0.1271,0.1283,0.1362,0.1155,0.1158,0.116,0.1161,0,-0.0945,-0.0961,-0.1007,-0.1089,-0.1119,-0.1143,-0.1123,-0.1099,-0.0956,-0.0825,-0.0594,-0.0398,0.0041,0.0442,0.0814,0.0975,0.1203,0.1129,0.1295,0.1421,0.1427,0.1552,0.1003,0.1181,0.1179,0.1177,0.1176,0.1175,-0.0993,-0.105,-0.1111,-0.1181,-0.1223,-0.1247,-0.1237,-0.1154,-0.1043,-0.0786,-0.0606,-0.0221,0.031,0.0867,0.1059,0.1451,0.1388,0.1555,0.1604,0.1609,0.1709,0.1183,0.1391,0.1391,0.139,0.1389,0.1389,0,-0.105,-0.1111,-0.1195,-0.127,-0.1323,-0.1321,-0.1285,-0.1206,-0.1038,-0.0734,-0.0457,0.0206,0.0728,0.1195,0.1728,0.1924,0.1966,0.201,0.2058,0.2125,0.1704,0.1697,0.1948,0.1948,0.1947,0.1947,0.1947,0.1947,-0.108,-0.1175,-0.1223,-0.1328,-0.1374,-0.1384,-0.135,-0.1173,-0.0929,-0.041,0.0038,0.0384,0.1003,0.1832,0.2331,0.2365,0.2549,0.2499,0.2614,0.2329,0.229,0.2253,0.2263,0.2627,0.2628,0.303,0.3034,0.3037]}],[{"header":{"parameterUnit":"m.s-1","parameterCategory":2,"la1":30.2991,"la2":30.254,"lo1":-89.0895,"lo2":-89.0444,"dy":0.0017,"dx":0.0017,"nx":28,"ny":28,"refTime":"2024-05-22T21:00:00:Z","depth":"2","parameterNumber":2,"parameterNumberName":"U-component_of_CURRENTS"},"data":[0,0,0,0,0,0,0,0,0,0,0,0,0,0,0,0,0,0,0,0,0,0,0,0,0,0,0,0,0,0,0,0,0,0,0,0,0,0,0,0,0,0,0,0,0,0,0,0,0,0,0,0,0,0,0,0,0,0,-0.2631,-0.2631,0,-0.2677,-0.2678,-0.2678,-0.2653,-0.2652,-0.2651,-0.265,-0.2625,-0.2626,-0.2626,0,0,0,0,0,0,0,0,0,0,0,0,0,-0.2537,-0.2538,-0.2631,-0.2631,-0.2632,-0.2677,-0.2678,-0.2678,-0.2653,-0.2652,-0.2651,-0.2649,-0.2625,-0.2626,-0.2626,0,0,0,0,0,0,0,0,0,0,0,0,0,-0.2578,-0.2539,-0.2631,-0.2627,-0.2627,-0.2677,-0.2678,-0.2678,-0.2653,-0.2652,-0.265,-0.2649,-0.2625,-0.2626,-0.2626,-0.266,0,0,-0.2627,-0.2628,0,0,0,0,0,0,0,0,-0.2575,-0.2581,-0.2627,-0.2627,-0.2628,-0.266,-0.2636,-0.2669,-0.2654,-0.2641,-0.265,-0.2648,-0.2633,-0.2633,-0.2643,-0.2659,-0.2658,-0.2627,-0.2628,-0.2628,-0.2628,0,0,0,0,0,0,0,-0.2572,-0.2579,-0.2647,-0.2628,-0.2629,-0.2629,-0.2632,-0.2642,-0.2642,-0.2642,-0.2641,-0.265,-0.2632,-0.2642,-0.2642,-0.2658,-0.2627,-0.2628,-0.2628,-0.2628,-0.2694,-0.2695,0,0,0,0,0,0,-0.2573,-0.2576,-0.2645,-0.2648,-0.26,-0.2632,-0.2636,-0.2649,-0.2643,-0.2642,-0.2652,-0.2649,-0.2642,-0.2641,-0.2641,-0.2676,-0.2628,-0.2628,-0.2629,-0.2692,-0.2694,-0.2696,0,0,0,0,0,0,-0.2571,-0.2579,-0.2643,-0.2615,-0.2623,-0.2635,-0.265,-0.2651,-0.2658,-0.2652,-0.2649,-0.2657,-0.2641,-0.264,-0.2656,-0.2674,-0.2629,-0.2629,-0.2691,-0.2693,-0.2695,-0.2749,0,0,0,0,0,0,-0.2568,-0.2578,-0.2586,-0.2615,-0.2625,-0.2674,-0.2652,-0.2653,-0.2667,-0.2664,-0.2656,-0.2652,-0.264,-0.2656,-0.2657,-0.2674,-0.2629,-0.2689,-0.2692,-0.2694,-0.2745,-0.2753,-0.2759,0,0,0,0,0,-0.2564,-0.2582,-0.2586,-0.2594,-0.2636,-0.2676,-0.2681,-0.2682,-0.2669,-0.268,-0.2678,-0.2652,-0.2673,-0.2658,-0.2659,-0.2676,-0.2687,-0.2691,-0.2694,-0.2742,-0.2751,-0.2759,0,0,0,0,0,0,-0.2541,-0.2582,-0.2587,-0.2614,-0.2644,-0.2672,-0.2683,-0.2688,-0.2697,-0.269,-0.2676,-0.2673,-0.2694,-0.2684,-0.2667,-0.2704,-0.2675,-0.2678,-0.2711,-0.272,-0.2726,-0.2727,-0.263,0,0,0,0,0,-0.2543,-0.2564,-0.2605,-0.2625,-0.2642,-0.2664,-0.2679,-0.2687,-0.2702,-0.2704,-0.2702,-0.2701,-0.2712,-0.2713,-0.2719,-0.2744,-0.2714,-0.2755,-0.2762,-0.2768,-0.277,-0.2755,-0.276,-0.2706,-0.2706,-0.2706,0,0,-0.2536,-0.2563,-0.2573,-0.2621,-0.264,-0.268,-0.2668,-0.2698,-0.2726,-0.2701,-0.2728,-0.2726,-0.2725,-0.275,-0.2758,-0.2741,-0.2765,-0.2772,-0.2777,-0.2776,-0.2759,-0.2763,-0.2768,-0.2709,-0.2708,-0.2708,0,0,-0.2541,-0.2562,-0.2586,-0.2621,-0.2664,-0.2686,-0.2698,-0.2735,-0.2744,-0.278,-0.2767,-0.2779,-0.2795,-0.2799,-0.2803,-0.2854,-0.2804,-0.2853,-0.2886,-0.2872,-0.2876,-0.2879,-0.2832,-0.2831,-0.2855,-0.2855,-0.2855,0,-0.2529,-0.257,-0.2597,-0.2639,-0.2668,-0.2692,-0.2731,-0.2757,-0.2793,-0.2804,-0.2791,-0.2819,-0.2819,-0.2848,-0.2869,-0.2868,-0.2839,-0.2853,-0.2879,-0.2881,-0.2884,-0.2836,-0.2833,-0.2858,-0.2857,-0.2857,-0.2857,0,-0.2562,-0.2597,-0.2616,-0.2676,-0.2713,-0.2749,-0.2798,-0.2827,-0.2838,-0.2857,-0.2884,-0.2888,-0.2898,-0.2906,-0.2906,-0.2929,-0.2895,-0.2889,-0.2854,-0.2892,-0.2839,-0.2836,-0.2862,-0.2861,-0.286,-0.2859,0,0,-0.2518,-0.2618,-0.2622,-0.2657,-0.2736,-0.2766,-0.2825,-0.2877,-0.29,-0.2927,-0.2947,-0.2979,-0.2968,-0.2972,-0.2968,-0.2965,-0.2957,-0.2939,-0.2937,-0.2885,-0.2898,-0.2793,-0.2778,-0.2952,-0.2952,-0.2952,-0.2848,0,-0.2529,-0.2604,-0.2656,-0.2722,-0.2764,-0.2818,-0.2871,-0.2921,-0.2947,-0.2974,-0.2981,-0.2997,-0.2996,-0.2996,-0.2998,-0.2975,-0.2953,-0.2984,-0.2876,-0.2872,-0.2768,-0.2773,-0.2589,-0.2474,-0.2845,-0.2844,-0.2843,0,-0.2536,-0.2589,-0.2657,-0.2748,-0.277,-0.2815,-0.2886,-0.2933,-0.2987,-0.3007,-0.3025,-0.3026,-0.3041,-0.3024,-0.299,-0.3008,-0.2958,-0.2928,-0.2923,-0.2804,-0.2761,-0.25,-0.2453,-0.2837,-0.2837,-0.2838,-0.2838,0,-0.2481,-0.2582,-0.2631,-0.2666,-0.2777,-0.281,-0.2861,-0.2932,-0.2967,-0.3013,-0.303,-0.3046,-0.3038,-0.3007,-0.2955,-0.2973,-0.2887,-0.2899,-0.2747,-0.2738,-0.2549,-0.2523,-0.2853,-0.2853,-0.2853,-0.2853,-0.2854,0,-0.2468,-0.2501,-0.2608,-0.2635,-0.2686,-0.2776,-0.2825,-0.2879,-0.295,-0.297,-0.3027,-0.3023,-0.3035,-0.2991,-0.2947,-0.2822,-0.2873,-0.2743,-0.2707,-0.2561,-0.2539,-0.2835,-0.2834,-0.2849,-0.285,-0.2851,-0.2852,0,-0.2391,-0.2468,-0.2522,-0.2631,-0.2661,-0.2689,-0.2795,-0.2826,-0.291,-0.2934,-0.2947,-0.2999,-0.2937,-0.2911,-0.2839,-0.2786,-0.2695,-0.2629,-0.2443,-0.2387,-0.2558,-0.2562,-0.2463,-0.2459,-0.2455,-0.2452,-0.2449,0,-0.236,-0.2381,-0.2483,-0.2503,-0.2548,-0.2612,-0.2653,-0.2775,-0.2806,-0.2892,-0.2882,-0.2867,-0.2803,-0.2672,-0.2568,-0.2441,-0.2545,-0.2214,-0.2227,-0.2544,-0.2519,-0.2529,-0.2538,-0.1989,-0.1983,-0.1978,-0.1974,0,-0.2273,-0.2307,-0.2341,-0.2393,-0.2435,-0.2484,-0.255,-0.2578,-0.2696,-0.2722,-0.2706,-0.2667,-0.2559,-0.2347,-0.2212,-0.2125,-0.2232,-0.2105,-0.2467,-0.2127,-0.2092,-0.207,-0.2095,-0.1928,-0.1933,-0.1936,-0.1939,-0.194,-0.2177,-0.2176,-0.2218,-0.2248,-0.2294,-0.2308,-0.2289,-0.2366,-0.2379,-0.2358,-0.2436,-0.2299,-0.2275,-0.1951,-0.1836,-0.1749,-0.1901,-0.1835,-0.1853,-0.1876,-0.1851,-0.1812,-0.1589,-0.1591,-0.1594,-0.1595,-0.1597,0,-0.2045,-0.2055,-0.2072,-0.2093,-0.2069,-0.215,-0.2175,-0.211,-0.205,-0.2063,-0.2006,-0.1749,-0.1618,-0.1596,-0.1389,-0.1356,-0.1369,-0.131,-0.1338,-0.1382,-0.1422,-0.1377,-0.0988,-0.0986,-0.0984,-0.0983,0,0,-0.1972,-0.1931,-0.1939,-0.1846,-0.1856,-0.1758,-0.1726,-0.1655,-0.1617,-0.1464,-0.139,-0.1488,-0.1527,-0.125,-0.1195,-0.1058,-0.1208,-0.1001,-0.1486,-0.1561,-0.1599,-0.1714,-0.1693,0,0,0,0,0]},{"header":{"parameterUnit":"m.s-1","parameterCategory":2,"la1":30.2991,"la2":30.254,"lo1":-89.0895,"lo2":-89.0444,"dy":0.0017,"dx":0.0017,"nx":28,"ny":28,"refTime":"2024-05-22T21:00:00:Z","depth":"2","parameterNumber":3,"parameterNumberName":"V-component_of_CURRENTS"},"data":[0,0,0,0,0,0,0,0,0,0,0,0,0,0,0,0,0,0,0,0,0,0,0,0,0,0,0,0,0,0,0,0,0,0,0,0,0,0,0,0,0,0,0,0,0,0,0,0,0,0,0,0,0,0,0,0,0,0,-0.0248,-0.0247,0,-0.0152,-0.0151,-0.015,-0.0075,-0.0074,-0.0074,-0.0073,0.0073,0.0076,0.0079,0,0,0,0,0,0,0,0,0,0,0,0,0,-0.0312,-0.0312,-0.0248,-0.0247,-0.0246,-0.0152,-0.0151,-0.0149,-0.0075,-0.0074,-0.0074,-0.0073,0.0072,0.0076,0.008,0,0,0,0,0,0,0,0,0,0,0,0,0,-0.0257,-0.0312,-0.0249,-0.0198,-0.0193,-0.0152,-0.0151,-0.0149,-0.0075,-0.0074,-0.0073,-0.0073,0.007,0.0075,0.008,0.0092,0,0,0.0095,0.0097,0,0,0,0,0,0,0,0,-0.026,-0.0254,-0.0207,-0.0202,-0.0196,-0.0125,-0.012,-0.0066,-0.0076,-0.0119,-0.0073,-0.0072,0.001,0.002,0.0036,0.0098,0.0105,0.0096,0.0099,0.0101,0.0102,0,0,0,0,0,0,0,-0.0264,-0.0258,-0.0209,-0.0206,-0.0199,-0.0162,-0.0153,-0.0109,-0.006,-0.0115,-0.011,-0.0101,0.0014,0.0031,0.0041,0.0107,0.0096,0.01,0.0103,0.0105,0.0224,0.0224,0,0,0,0,0,0,-0.0282,-0.0262,-0.0212,-0.0207,-0.0227,-0.0162,-0.0152,-0.0148,-0.0061,-0.0047,-0.0102,-0.0098,0.0022,0.0035,0.0046,0.0083,0.0101,0.0105,0.0108,0.0224,0.0224,0.0224,0,0,0,0,0,0,-0.0283,-0.0278,-0.0216,-0.0232,-0.0222,-0.0162,-0.0158,-0.0147,-0.0126,-0.0051,-0.0036,-0.0092,0.0024,0.0039,0.0089,0.0089,0.0108,0.0112,0.0223,0.0224,0.0224,0.0145,0,0,0,0,0,0,-0.0286,-0.028,-0.0286,-0.0234,-0.0222,-0.02,-0.0159,-0.0146,-0.0122,-0.0116,-0.0039,-0.0024,0.0026,0.0081,0.0093,0.0096,0.0116,0.0223,0.0223,0.0224,0.0148,0.0143,0.0139,0,0,0,0,0,-0.0289,-0.0303,-0.0287,-0.0281,-0.0231,-0.0201,-0.0191,-0.0144,-0.0123,-0.0121,-0.0063,-0.0026,0.0092,0.0085,0.01,0.0103,0.0223,0.0223,0.0224,0.015,0.0144,0.0139,0,0,0,0,0,0,-0.0334,-0.0295,-0.0276,-0.0278,-0.0245,-0.0188,-0.0184,-0.0152,-0.0105,-0.0098,-0.0025,-0.0007,0.0035,0.008,0.007,0.014,0.0164,0.0168,0.0103,0.0098,0.0094,0.0079,0.012,0,0,0,0,0,-0.0348,-0.0349,-0.0303,-0.0305,-0.0293,-0.0241,-0.0223,-0.0192,-0.0144,-0.0123,-0.0068,-0.0006,0.0047,0.008,0.0129,0.0166,0.0217,0.018,0.0175,0.0171,0.017,0.025,0.0253,0.0225,0.0225,0.0225,0,0,-0.0366,-0.0346,-0.0345,-0.0315,-0.0286,-0.0277,-0.0228,-0.0209,-0.0194,-0.0114,-0.0081,-0.0025,0.0052,0.0094,0.0118,0.0134,0.0204,0.0171,0.0167,0.0169,0.0251,0.0254,0.0256,0.0226,0.0226,0.0226,0,0,-0.0409,-0.0386,-0.0403,-0.0379,-0.0345,-0.031,-0.0309,-0.0256,-0.0226,-0.0189,-0.0125,-0.0067,0.0006,0.0068,0.0108,0.0109,0.0172,0.0122,0.0095,0.0172,0.0175,0.0178,0.0234,0.0242,0.0126,0.0126,0.0126,0,-0.0434,-0.0447,-0.0403,-0.041,-0.0395,-0.033,-0.034,-0.03,-0.0236,-0.0209,-0.0189,-0.0064,-0.0004,0.0068,0.007,0.0099,0.0145,0.0105,0.0166,0.017,0.0175,0.0231,0.0242,0.0122,0.0123,0.0123,0.0123,0,-0.0485,-0.0493,-0.0501,-0.0486,-0.0463,-0.0462,-0.0401,-0.0373,-0.033,-0.0279,-0.0209,-0.0122,-0.0044,-0.0016,0.0028,0.0092,0.0114,0.0144,0.0174,0.0172,0.0232,0.0244,0.0117,0.0118,0.0119,0.012,0,0,-0.0544,-0.0541,-0.0543,-0.0554,-0.0504,-0.0495,-0.0463,-0.0415,-0.0388,-0.0317,-0.0271,-0.0175,-0.012,-0.007,-0.0,0.007,0.0137,0.0113,0.0119,0.0158,0.0295,0.033,0.0348,0.0177,0.0179,0.0181,0.0318,0,-0.06,-0.0643,-0.0613,-0.064,-0.0654,-0.0583,-0.0557,-0.0496,-0.043,-0.0367,-0.0259,-0.0194,-0.0141,-0.0101,-0.0023,0.0104,0.0169,0.0096,0.03,0.0305,0.033,0.0363,0.0313,0.0433,0.0331,0.0333,0.0334,0,-0.0657,-0.0679,-0.0724,-0.072,-0.0717,-0.0712,-0.0653,-0.0623,-0.0507,-0.0451,-0.0357,-0.0267,-0.0147,-0.0108,0.0101,0.0052,0.0159,0.0254,0.0262,0.0333,0.0365,0.0424,0.0461,0.0356,0.0355,0.0353,0.0351,0,-0.0727,-0.0753,-0.0796,-0.0794,-0.0773,-0.0769,-0.0745,-0.0649,-0.0615,-0.0499,-0.0452,-0.0301,-0.021,-0.006,0.0135,0.0121,0.0365,0.0375,0.0504,0.0507,0.0525,0.0527,0.0512,0.0512,0.0511,0.0511,0.051,0,-0.0796,-0.083,-0.0837,-0.0861,-0.0897,-0.0844,-0.0842,-0.079,-0.0693,-0.0642,-0.0505,-0.0417,-0.0191,-0.0021,0.0131,0.0366,0.0368,0.051,0.0555,0.0495,0.0492,0.0474,0.0468,0.0516,0.0515,0.0514,0.0513,0,-0.0867,-0.0871,-0.0927,-0.0933,-0.0938,-0.096,-0.0926,-0.091,-0.081,-0.0734,-0.0699,-0.0483,-0.0251,-0.003,0.0245,0.0373,0.0579,0.0654,0.0559,0.0591,0.0663,0.0652,0.0811,0.0813,0.0816,0.0818,0.0819,0,-0.091,-0.0946,-0.0996,-0.1033,-0.1043,-0.106,-0.1065,-0.0984,-0.0947,-0.0764,-0.0725,-0.0484,-0.0283,0.0125,0.0387,0.0668,0.0659,0.0768,0.0738,0.0671,0.0699,0.0684,0.0669,0.0724,0.0725,0.0725,0.0726,0,-0.0987,-0.1003,-0.1048,-0.113,-0.1163,-0.1192,-0.118,-0.1164,-0.1039,-0.0927,-0.0721,-0.0541,-0.0142,0.0191,0.0539,0.068,0.0718,0.0788,0.0775,0.0652,0.0601,0.0624,0.0611,0.0731,0.073,0.073,0.073,0.0729,-0.1034,-0.109,-0.115,-0.122,-0.1265,-0.1296,-0.1293,-0.1223,-0.1131,-0.0911,-0.0739,-0.0413,-0.0119,0.041,0.0629,0.0819,0.082,0.0855,0.0849,0.0844,0.0805,0.076,0.0912,0.0912,0.0913,0.0913,0.0913,0,-0.1091,-0.1151,-0.1233,-0.131,-0.1365,-0.1366,-0.1344,-0.1281,-0.1137,-0.0889,-0.0637,-0.028,0.0099,0.0396,0.0717,0.0903,0.0859,0.0907,0.0815,0.0809,0.0805,0.076,0.0858,0.0858,0.0859,0.0859,0,0,-0.1122,-0.1214,-0.126,-0.1369,-0.1417,-0.1438,-0.1412,-0.1269,-0.1074,-0.0806,-0.0535,-0.0203,0.0154,0.0368,0.058,0.074,0.0717,0.0734,0.0757,0.0616,0.0609,0.0753,0.0676,0,0,0,0,0]}],[{"header":{"parameterUnit":"m.s-1","parameterCategory":2,"la1":30.2991,"la2":30.254,"lo1":-89.0895,"lo2":-89.0444,"dy":0.0017,"dx":0.0017,"nx":28,"ny":28,"refTime":"2024-05-22T21:00:00:Z","depth":"4","parameterNumber":2,"parameterNumberName":"U-component_of_CURRENTS"},"data":[0,0,0,0,0,0,0,0,0,0,0,0,0,0,0,0,0,0,0,0,0,0,0,0,0,0,0,0,0,0,0,0,0,0,0,0,0,0,0,0,0,0,0,0,0,0,0,0,0,0,0,0,0,0,0,0,0,0,-0.1847,-0.1848,0,-0.1932,-0.1933,-0.1933,-0.1973,-0.1973,-0.1973,-0.1974,-0.2026,-0.2027,-0.2028,0,0,0,0,0,0,0,0,0,0,0,0,0,-0.1729,-0.1731,-0.1847,-0.1848,-0.1849,-0.1932,-0.1933,-0.1934,-0.1973,-0.1973,-0.1973,-0.1974,-0.2025,-0.2027,-0.2028,0,0,0,0,0,0,0,0,0,0,0,0,0,-0.1792,-0.1731,-0.1847,-0.188,-0.1884,-0.1931,-0.1933,-0.1934,-0.1973,-0.1973,-0.1973,-0.1974,-0.2025,-0.2027,-0.2029,-0.2038,0,0,-0.2035,-0.2036,0,0,0,0,0,0,0,0,-0.1789,-0.1796,-0.1874,-0.1878,-0.1883,-0.1943,-0.191,-0.1968,-0.1973,-0.1938,-0.1974,-0.1974,-0.1996,-0.2,-0.2014,-0.2041,-0.2043,-0.2035,-0.2036,-0.2037,-0.2037,0,0,0,0,0,0,0,-0.1784,-0.1793,-0.1879,-0.1875,-0.1881,-0.1894,-0.1903,-0.1921,-0.1963,-0.1941,-0.1944,-0.1956,-0.1998,-0.2012,-0.2016,-0.2044,-0.2035,-0.2037,-0.2038,-0.2039,-0.2149,-0.215,0,0,0,0,0,0,-0.1776,-0.1789,-0.1876,-0.1882,-0.1837,-0.1896,-0.1906,-0.1922,-0.1964,-0.1971,-0.1956,-0.1958,-0.2009,-0.2013,-0.2018,-0.2099,-0.2037,-0.2039,-0.204,-0.2147,-0.2149,-0.2151,0,0,0,0,0,0,-0.1774,-0.1784,-0.1873,-0.1838,-0.1851,-0.1898,-0.1916,-0.1924,-0.1969,-0.1976,-0.1982,-0.1996,-0.2009,-0.2015,-0.2066,-0.2099,-0.204,-0.2041,-0.2145,-0.2148,-0.215,-0.2218,0,0,0,0,0,0,-0.177,-0.1782,-0.1808,-0.1838,-0.1852,-0.1921,-0.1917,-0.1926,-0.1975,-0.1978,-0.2012,-0.2015,-0.201,-0.2064,-0.2068,-0.21,-0.2043,-0.2143,-0.2146,-0.2149,-0.2214,-0.2223,-0.2231,0,0,0,0,0,-0.1765,-0.1794,-0.1808,-0.182,-0.188,-0.1923,-0.1932,-0.1964,-0.1977,-0.2004,-0.2031,-0.2016,-0.2087,-0.2067,-0.2072,-0.2105,-0.2141,-0.2145,-0.2149,-0.221,-0.2221,-0.2231,0,0,0,0,0,0,-0.1756,-0.1802,-0.1818,-0.186,-0.1899,-0.193,-0.1964,-0.1984,-0.2029,-0.2041,-0.2043,-0.2049,-0.2104,-0.2099,-0.2077,-0.2147,-0.211,-0.2115,-0.2154,-0.2165,-0.2173,-0.2168,-0.2045,0,0,0,0,0,-0.1766,-0.1801,-0.1841,-0.1878,-0.1901,-0.1939,-0.1967,-0.1991,-0.2026,-0.2048,-0.2072,-0.2097,-0.2119,-0.2139,-0.2157,-0.2201,-0.2171,-0.2225,-0.2233,-0.224,-0.224,-0.2231,-0.2238,-0.2164,-0.2164,-0.2164,0,0,-0.1773,-0.1803,-0.1825,-0.188,-0.1913,-0.1956,-0.1957,-0.2011,-0.2052,-0.2045,-0.2117,-0.2131,-0.2139,-0.2186,-0.2209,-0.219,-0.2245,-0.2245,-0.2251,-0.2247,-0.2235,-0.2242,-0.2248,-0.2167,-0.2166,-0.2166,0,0,-0.1793,-0.1833,-0.1867,-0.1906,-0.1965,-0.199,-0.2012,-0.2066,-0.21,-0.2163,-0.2166,-0.2204,-0.2248,-0.2258,-0.2265,-0.2333,-0.229,-0.2343,-0.2384,-0.2375,-0.238,-0.2385,-0.2347,-0.2347,-0.2347,-0.2347,-0.2347,0,-0.1802,-0.1848,-0.1885,-0.1929,-0.1965,-0.2008,-0.2053,-0.2095,-0.2161,-0.2186,-0.2196,-0.2263,-0.2278,-0.2317,-0.2347,-0.2351,-0.2328,-0.2343,-0.2384,-0.2388,-0.2391,-0.2351,-0.2351,-0.2351,-0.235,-0.235,-0.235,0,-0.1838,-0.189,-0.1916,-0.1983,-0.2028,-0.2076,-0.2132,-0.2186,-0.223,-0.226,-0.2323,-0.2346,-0.2378,-0.2395,-0.2397,-0.2435,-0.2404,-0.2394,-0.2354,-0.2402,-0.2358,-0.2356,-0.2356,-0.2355,-0.2354,-0.2353,0,0,-0.1811,-0.192,-0.1931,-0.1972,-0.2063,-0.2096,-0.2175,-0.2239,-0.2281,-0.2346,-0.2388,-0.2446,-0.2455,-0.2465,-0.2471,-0.2476,-0.2487,-0.2456,-0.2454,-0.241,-0.2448,-0.2287,-0.2269,-0.2486,-0.2486,-0.2487,-0.2403,0,-0.1828,-0.1909,-0.1965,-0.2046,-0.209,-0.216,-0.2223,-0.229,-0.2342,-0.2394,-0.2426,-0.2469,-0.2482,-0.2501,-0.2513,-0.2497,-0.2488,-0.2509,-0.2415,-0.2411,-0.2255,-0.2264,-0.2488,-0.2401,-0.2401,-0.24,-0.24,0,-0.1834,-0.189,-0.1973,-0.2074,-0.21,-0.2161,-0.2254,-0.2312,-0.2391,-0.2432,-0.248,-0.25,-0.2537,-0.2532,-0.2522,-0.2536,-0.2501,-0.2478,-0.2474,-0.2297,-0.2247,-0.2346,-0.2396,-0.2397,-0.2397,-0.2397,-0.2397,0,-0.1774,-0.1889,-0.1954,-0.1993,-0.2116,-0.2171,-0.2233,-0.2324,-0.2368,-0.2449,-0.2477,-0.2523,-0.2536,-0.2525,-0.2496,-0.2513,-0.2451,-0.2459,-0.2273,-0.2261,-0.2401,-0.2398,-0.2432,-0.2432,-0.2433,-0.2433,-0.2433,0,-0.1747,-0.1801,-0.1939,-0.1973,-0.2045,-0.2144,-0.2218,-0.2285,-0.2373,-0.2397,-0.2486,-0.2488,-0.2538,-0.2512,-0.2488,-0.2358,-0.2439,-0.2266,-0.2227,-0.2431,-0.2432,-0.2399,-0.2396,-0.243,-0.243,-0.2431,-0.2431,0,-0.1663,-0.176,-0.1836,-0.1975,-0.2019,-0.2067,-0.2198,-0.2234,-0.2339,-0.2368,-0.2393,-0.2461,-0.2416,-0.2422,-0.238,-0.2311,-0.2228,-0.2159,-0.2354,-0.2329,-0.2047,-0.205,-0.1942,-0.1936,-0.1931,-0.1926,-0.1922,0,-0.1623,-0.1658,-0.1808,-0.1846,-0.1915,-0.2008,-0.2059,-0.2194,-0.222,-0.2316,-0.2298,-0.2309,-0.2326,-0.2124,-0.2166,-0.2074,-0.2056,-0.2005,-0.2053,-0.2024,-0.1997,-0.2008,-0.2017,-0.1914,-0.1912,-0.1911,-0.1909,0,-0.1529,-0.16,-0.1656,-0.1738,-0.1808,-0.1867,-0.1949,-0.1958,-0.2078,-0.2201,-0.2135,-0.21,-0.2033,-0.1993,-0.1925,-0.1875,-0.2043,-0.1948,-0.196,-0.2005,-0.1988,-0.1969,-0.1984,-0.1891,-0.1893,-0.1895,-0.1896,0,-0.1449,-0.1463,-0.1543,-0.1593,-0.1673,-0.1679,-0.1756,-0.1778,-0.1823,-0.1945,-0.191,-0.1928,-0.1994,-0.1884,-0.1827,-0.1757,-0.1742,-0.1704,-0.1729,-0.175,-0.1728,-0.168,-0.1438,0,0,0,0,0,-0.1355,-0.135,-0.1388,-0.1432,-0.1503,-0.1539,-0.1649,-0.173,-0.1857,-0.1754,-0.183,-0.1761,-0.1681,-0.17,-0.1582,-0.1735,-0.1746,-0.1593,-0.1717,-0.1786,-0.1808,-0.1801,0,0,0,0,0,0,-0.1291,-0.1321,-0.1328,-0.127,-0.1268,-0.1318,-0.1377,-0.1473,-0.1436,-0.1575,-0.1532,-0.1646,-0.1585,-0.1695,-0.1536,-0.1541,-0.1583,-0.1626,-0.1622,-0.1774,-0.1793,-0.1811,-0.1812,0,0,0,0,0]},{"header":{"parameterUnit":"m.s-1","parameterCategory":2,"la1":30.2991,"la2":30.254,"lo1":-89.0895,"lo2":-89.0444,"dy":0.0017,"dx":0.0017,"nx":28,"ny":28,"refTime":"2024-05-22T21:00:00:Z","depth":"4","parameterNumber":3,"parameterNumberName":"V-component_of_CURRENTS"},"data":[0,0,0,0,0,0,0,0,0,0,0,0,0,0,0,0,0,0,0,0,0,0,0,0,0,0,0,0,0,0,0,0,0,0,0,0,0,0,0,0,0,0,0,0,0,0,0,0,0,0,0,0,0,0,0,0,0,0,-0.0237,-0.0236,0,-0.0169,-0.0168,-0.0167,-0.0118,-0.0118,-0.0118,-0.0117,-0.0006,-0.0003,-0.0,0,0,0,0,0,0,0,0,0,0,0,0,0,-0.0281,-0.028,-0.0237,-0.0236,-0.0236,-0.0169,-0.0168,-0.0167,-0.0118,-0.0118,-0.0118,-0.0117,-0.0007,-0.0003,-0.0,0,0,0,0,0,0,0,0,0,0,0,0,0,-0.0241,-0.028,-0.0237,-0.0204,-0.02,-0.0169,-0.0168,-0.0166,-0.0118,-0.0118,-0.0117,-0.0117,-0.0008,-0.0004,0.0,0.0016,0,0,0.0012,0.0014,0,0,0,0,0,0,0,0,-0.0244,-0.024,-0.021,-0.0206,-0.0202,-0.0152,-0.0142,-0.0104,-0.0119,-0.0149,-0.0117,-0.0117,-0.0052,-0.0044,-0.0032,0.0021,0.0026,0.0013,0.0015,0.0017,0.0018,0,0,0,0,0,0,0,-0.0246,-0.0242,-0.0209,-0.0209,-0.0204,-0.0177,-0.0171,-0.0134,-0.0102,-0.0146,-0.0142,-0.0136,-0.0049,-0.0036,-0.0028,0.0027,0.0013,0.0016,0.0019,0.002,0.0121,0.0121,0,0,0,0,0,0,-0.026,-0.0245,-0.0211,-0.0207,-0.0223,-0.0177,-0.017,-0.0168,-0.0103,-0.0094,-0.0137,-0.0134,-0.0043,-0.0033,-0.0024,0.0004,0.0017,0.0021,0.0023,0.0121,0.0121,0.0121,0,0,0,0,0,0,-0.0261,-0.0257,-0.0214,-0.0225,-0.0217,-0.0177,-0.0175,-0.0167,-0.0154,-0.0097,-0.0086,-0.0132,-0.0042,-0.003,0.001,0.0009,0.0023,0.0026,0.012,0.0121,0.0121,0.0057,0,0,0,0,0,0,-0.0262,-0.0258,-0.0264,-0.0226,-0.0217,-0.0201,-0.0175,-0.0166,-0.0151,-0.0147,-0.0089,-0.0078,-0.0041,0.0003,0.0014,0.0014,0.0029,0.012,0.012,0.0121,0.0059,0.0055,0.0052,0,0,0,0,0,-0.0264,-0.0274,-0.0265,-0.0261,-0.0226,-0.0202,-0.0195,-0.0164,-0.0151,-0.0149,-0.0107,-0.008,0.0014,0.0007,0.0019,0.0021,0.012,0.012,0.0121,0.006,0.0056,0.0052,0,0,0,0,0,0,-0.0295,-0.0269,-0.0259,-0.026,-0.0236,-0.0194,-0.0192,-0.017,-0.0135,-0.0132,-0.0077,-0.0063,-0.003,0.0006,-0.0004,0.0052,0.0071,0.0074,0.0021,0.0018,0.0014,-0.0001,0.0033,0,0,0,0,0,-0.0307,-0.0308,-0.0275,-0.0278,-0.027,-0.0233,-0.022,-0.0199,-0.0163,-0.0148,-0.0107,-0.006,-0.0018,0.0007,0.0046,0.0076,0.0113,0.0087,0.0083,0.008,0.0077,0.0137,0.0139,0.0123,0.0123,0.0123,0,0,-0.032,-0.0306,-0.0307,-0.0285,-0.0266,-0.026,-0.0224,-0.0211,-0.0202,-0.0141,-0.0118,-0.0074,-0.0014,0.002,0.0038,0.005,0.0102,0.0081,0.0078,0.0076,0.0138,0.0139,0.0141,0.0123,0.0123,0.0123,0,0,-0.035,-0.0336,-0.0349,-0.0332,-0.0309,-0.0284,-0.0284,-0.0246,-0.0226,-0.0198,-0.015,-0.0106,-0.0048,-0.0001,0.003,0.0034,0.0078,0.0045,0.002,0.0078,0.008,0.0082,0.0115,0.0121,0.0047,0.0047,0.0047,0,-0.0369,-0.0379,-0.0348,-0.0353,-0.0346,-0.03,-0.0309,-0.028,-0.0233,-0.0217,-0.02,-0.0106,-0.0056,-0.0003,-0.0001,0.0025,0.0057,0.0027,0.0073,0.0075,0.0078,0.0113,0.012,0.0044,0.0045,0.0045,0.0045,0,-0.0402,-0.0413,-0.0418,-0.0411,-0.0397,-0.0398,-0.0356,-0.0338,-0.031,-0.0274,-0.0224,-0.0153,-0.0095,-0.007,-0.0033,0.0014,0.0027,0.0056,0.0078,0.0076,0.0113,0.0121,0.004,0.0041,0.0042,0.0043,0,0,-0.0439,-0.0444,-0.0448,-0.0463,-0.043,-0.0426,-0.0408,-0.0378,-0.0368,-0.0311,-0.0286,-0.0205,-0.0163,-0.0124,-0.0066,-0.0011,0.0036,0.0026,0.003,0.0049,0.0148,0.0142,0.0151,0.0072,0.0074,0.0075,0.0159,0,-0.0479,-0.0516,-0.0498,-0.0528,-0.0542,-0.0498,-0.0486,-0.0448,-0.0404,-0.0366,-0.028,-0.0234,-0.0183,-0.0155,-0.0091,0.0009,0.0057,0.0009,0.0156,0.016,0.0147,0.016,0.0079,0.0166,0.0168,0.0169,0.017,0,-0.0516,-0.0538,-0.0581,-0.0596,-0.0598,-0.0603,-0.0579,-0.0562,-0.0486,-0.0449,-0.0379,-0.0308,-0.0215,-0.0175,-0.0014,-0.0047,0.0038,0.0114,0.012,0.0143,0.017,0.0175,0.0186,0.0184,0.0183,0.0182,0.0181,0,-0.0562,-0.0595,-0.0639,-0.0642,-0.0644,-0.0655,-0.0648,-0.059,-0.0575,-0.0498,-0.047,-0.0353,-0.0287,-0.0162,-0.0004,-0.0007,0.0171,0.0189,0.026,0.026,0.0267,0.0264,0.0293,0.0293,0.0293,0.0293,0.0292,0,-0.0604,-0.0641,-0.0671,-0.0695,-0.0745,-0.0715,-0.0738,-0.0709,-0.0652,-0.0626,-0.052,-0.0459,-0.0278,-0.0149,-0.0018,0.0146,0.0163,0.0255,0.0287,0.0236,0.0229,0.0272,0.0268,0.0296,0.0295,0.0294,0.0294,0,-0.0643,-0.0662,-0.0722,-0.0755,-0.0772,-0.0804,-0.0811,-0.0813,-0.0753,-0.0711,-0.0688,-0.0529,-0.0356,-0.0181,0.0035,0.0127,0.0284,0.0336,0.0253,0.0279,0.0332,0.0324,0.0414,0.0415,0.0415,0.0416,0.0416,0,-0.0665,-0.07,-0.0778,-0.0822,-0.0846,-0.0887,-0.0909,-0.0872,-0.0854,-0.0742,-0.0715,-0.0548,-0.0427,-0.0123,0.005,0.0283,0.0317,0.0377,0.0366,0.0325,0.0347,0.0338,0.033,0.0417,0.0417,0.0417,0.0417,0,-0.0706,-0.074,-0.079,-0.0884,-0.0937,-0.0983,-0.1,-0.0992,-0.0922,-0.0877,-0.0706,-0.0535,-0.034,-0.011,0.007,0.0238,0.0328,0.0383,0.0383,0.0373,0.033,0.0349,0.034,0.0419,0.0419,0.0419,0.0418,0,-0.0735,-0.0783,-0.0855,-0.0931,-0.1005,-0.1043,-0.1051,-0.0997,-0.0961,-0.0816,-0.0759,-0.053,-0.0387,-0.0132,0.0038,0.0197,0.0233,0.027,0.0277,0.0276,0.0211,0.0135,0.0193,0,0,0,0,0,-0.0754,-0.0809,-0.0891,-0.0971,-0.1044,-0.1077,-0.1091,-0.1074,-0.1006,-0.0887,-0.0811,-0.0616,-0.0322,-0.0186,-0.0026,0.0012,0.0225,0.0199,0.0261,0.0429,0.0427,0.0374,0,0,0,0,0,0,-0.0767,-0.0849,-0.0892,-0.0982,-0.1036,-0.11,-0.1108,-0.1066,-0.0975,-0.088,-0.0713,-0.0596,-0.0311,-0.0409,-0.0026,0.0023,0.0078,0.0347,0.0349,0.043,0.0428,0.0427,0.0371,0,0,0,0,0]}]]